TimeCDT,TemperatureF,Dew PointF,Humidity,Sea Level PressureIn,VisibilityMPH,Wind Direction,Wind SpeedMPH,Gust SpeedMPH,PrecipitationIn,Events,Conditions,WindDirDegrees,DateUTC
12:53 AM,69.1,52.0,54,29.92,10.0,Calm,Calm,-,N/A,,Clear,0,2013-06-08 05:53:00
1:53 AM,66.9,52.0,59,29.94,10.0,NNE,3.5,-,N/A,,Clear,20,2013-06-08 06:53:00
2:53 AM,64.9,53.1,65,29.92,10.0,NE,3.5,-,N/A,,Clear,40,2013-06-08 07:53:00
3:53 AM,66.0,52.0,60,29.90,10.0,NE,3.5,-,N/A,,Clear,40,2013-06-08 08:53:00
4:53 AM,64.9,52.0,63,29.91,10.0,Calm,Calm,-,N/A,,Clear,0,2013-06-08 09:53:00
5:53 AM,66.0,52.0,60,29.91,10.0,ESE,3.5,-,N/A,,Clear,110,2013-06-08 10:53:00
6:53 AM,66.9,53.1,61,29.92,10.0,ESE,4.6,-,N/A,,Clear,120,2013-06-08 11:53:00
7:53 AM,70.0,54.0,57,29.93,10.0,SE,4.6,-,N/A,,Clear,140,2013-06-08 12:53:00
8:53 AM,73.9,55.0,52,29.94,9.0,SSE,8.1,-,N/A,,Clear,160,2013-06-08 13:53:00
9:53 AM,78.1,55.9,46,29.93,10.0,SSE,10.4,-,N/A,,Clear,160,2013-06-08 14:53:00
10:53 AM,80.1,54.0,40,29.93,10.0,SSE,11.5,16.1,N/A,,Clear,160,2013-06-08 15:53:00
11:53 AM,82.9,55.9,39,29.90,7.0,SE,11.5,19.6,N/A,,Clear,140,2013-06-08 16:53:00
12:53 PM,84.9,57.0,38,29.89,10.0,South,9.2,17.3,N/A,,Clear,170,2013-06-08 17:53:00
1:53 PM,86.0,59.0,40,29.87,10.0,South,10.4,-,N/A,,Clear,180,2013-06-08 18:53:00
2:53 PM,88.0,61.0,40,29.85,10.0,SSE,11.5,-,N/A,,Partly Cloudy,160,2013-06-08 19:53:00
3:53 PM,87.1,62.1,43,29.83,10.0,SE,5.8,-,N/A,,Scattered Clouds,130,2013-06-08 20:53:00
4:53 PM,87.1,63.0,44,29.83,10.0,South,8.1,17.3,N/A,,Clear,170,2013-06-08 21:53:00
5:53 PM,86.0,64.9,49,29.79,10.0,South,8.1,17.3,N/A,,Clear,170,2013-06-08 22:53:00
6:53 PM,84.9,62.1,46,29.78,10.0,South,11.5,17.3,N/A,,Clear,170,2013-06-08 23:53:00
7:53 PM,84.9,63.0,48,29.79,10.0,South,6.9,-,N/A,,Clear,170,2013-06-09 00:53:00
8:53 PM,81.0,63.0,54,29.78,10.0,SE,3.5,-,N/A,,Clear,140,2013-06-09 01:53:00
9:53 PM,80.1,66.0,62,29.81,10.0,South,6.9,-,N/A,,Clear,170,2013-06-09 02:53:00
10:53 PM,79.0,64.9,62,29.83,10.0,South,8.1,-,N/A,,Clear,170,2013-06-09 03:53:00
11:53 PM,78.1,66.9,68,29.83,10.0,South,6.9,-,N/A,,Clear,170,2013-06-09 04:53:00